Flag for Cambodia Weather past 2 weeks in Phnom Penh, Cambodia

86 °F

Partly sunny.

Feels Like: 95 °F
Forecast: 77 / 92 °F
Wind: 3 mph from North

Location: Phnom-Penh / Pochentong

Current Time: Dec 1, 2015 at 11:45:42 AM

Latest Report: Dec 1, 2015 at 10:30 AM

Visibility: N/A

Pressure: 29.89 "Hg

Humidity: 70%

Dew point: 75 °F

Location of Phnom PenhLocation

Historic Weather in Phnom Penh — Graph


Phnom Penh temperature yesterday

Maximum temperature yesterday: 91 °F (at 11:30 AM)
Minimum temperature yesterday: 79 °F (at 11:30 PM)
Average temperature yesterday: 87 °F

Past Weeks' High & Low Weather Summary

High93 °F (Nov 16, 2:00 PM)94% (Nov 23, 6:30 AM)32.49 "Hg (Nov 23, 6:30 AM)
Low77 °F (Nov 27, 6:00 AM)49% (Nov 20, 2:00 PM)29.71 "Hg (Nov 16, 3:30 PM)
Average86 °F68%29.84 "Hg
* Reported Nov 16 10:00 AM — Dec 1 10:30 AM, Phnom Penh, Weather by CustomWeather, © 2015

Note: Actual official high and low records may vary slightly from our data, if they occured in-between our weather recording intervals... More about our weather records


Phnom Penh weather history for previous 24 hours

Time TempWeatherWind HumidityBarometerVisibility
10:30 AM
Tue, Dec 1
86 °FPartly sunny.3 mph70%29.89 "HgN/A
10:00 AM86 °FPartly sunny.3 mph70%29.89 "HgN/A
9:30 AM84 °FScattered clouds.2 mph74%29.92 "HgN/A
9:00 AM84 °FScattered clouds.3 mph79%29.92 "HgN/A
8:00 AM82 °FScattered clouds.5 mph84%29.89 "HgN/A
6:30 AM79 °FScattered clouds.No wind89%29.86 "Hg6 mi
6:00 AM79 °FPassing clouds.1 mph89%29.86 "Hg6 mi
1:00 AM79 °FPassing clouds.6 mph94%29.86 "Hg6 mi
12:30 AM79 °FPassing clouds.6 mph94%29.89 "Hg6 mi
12:00 AM79 °FPassing clouds.7 mph94%29.86 "Hg6 mi
11:30 PM
Mon, Nov 30
79 °FPassing clouds.7 mph94%29.86 "Hg6 mi
11:00 PM81 °FPassing clouds.7 mph89%29.89 "Hg6 mi
10:30 PM81 °FPassing clouds.7 mph84%29.89 "Hg6 mi
10:00 PM81 °FPassing clouds.6 mph84%29.86 "Hg6 mi
9:30 PM84 °FPassing clouds.No wind74%29.86 "Hg6 mi
9:00 PM84 °FPassing clouds.3 mph74%29.83 "Hg6 mi
8:30 PM84 °FPassing clouds.2 mph70%29.83 "Hg6 mi
8:00 PM84 °FPassing clouds.1 mph74%29.83 "Hg6 mi
7:30 PM88 °FPassing clouds.1 mph66%29.83 "Hg6 mi
7:00 PM88 °FPassing clouds.3 mph66%29.80 "Hg6 mi
6:30 PM90 °FPassing clouds.3 mph63%29.80 "Hg6 mi
6:00 PM90 °FPassing clouds.2 mph59%29.80 "Hg6 mi
5:30 PM90 °FPassing clouds.3 mph59%29.80 "HgN/A
5:00 PM91 °FScattered clouds.3 mph56%29.77 "HgN/A
4:30 PM91 °FScattered clouds.5 mph56%29.77 "HgN/A
4:00 PM91 °FScattered clouds.5 mph56%29.77 "HgN/A
3:30 PM91 °FScattered clouds.8 mph56%29.77 "HgN/A
3:00 PM91 °FScattered clouds.8 mph56%29.80 "HgN/A
2:30 PM91 °FScattered clouds.9 mph52%29.80 "HgN/A
2:00 PM91 °FScattered clouds.9 mph56%29.80 "HgN/A
1:30 PM91 °FScattered clouds.15 mph56%29.83 "HgN/A
1:00 PM91 °FScattered clouds.10 mph56%29.83 "HgN/A
12:30 PM91 °FScattered clouds.15 mph56%29.86 "HgN/A
12:00 PM90 °FScattered clouds.14 mph55%29.89 "HgN/A
11:30 AM91 °FPassing clouds.12 mph56%29.89 "HgN/A
Weather by CustomWeather, © 2015

See weather overviewHow to use our weather pages